User: anonymous   Login
Location: Unspecified
(0.0000°N, 0.0000°E)
Time: 13:11:03
(UTC+00:00)
Language:

AGILE - Orbit

View from above orbital plane
View from above orbital plane
View from above satellite
View from above satellite

Ground track
Ground track

The orbit data is extracted from the following two-line orbital elements,

1 31135U 07013A   15091.14696184  .00010787  00000-0  38594-3 0  9994
2 31135 002.4677 260.2308 0014517 064.9465 295.2095 15.24079776439932
Epoch (UTC): 01 April 2015 03:31:37
Eccentricity: 0.0014517
inclination: 2.4677°
perigee height: 483 km
apogee height: 503 km
right ascension of ascending node: 260.2308°
argument of perigee: 64.9465°
revolutions per day: 15.24079776
mean anomaly at epoch: 295.2095°
orbit number at epoch: 43993

The dashed part of the orbit path shows where the satellite is in the earth's shadow,  

DLR